Tracking 28052 objects as of 25-Sep-2023
HD Live streaming from Space Station
objects crossing your sky now

SL-8 DEB

Track SL-8 DEB now!
10-day predictions


NORAD ID: 21943
Int'l Code: 1991-009CE
Perigee: 1,494.0 km
Apogee: 1,712.1 km
Inclination: 74.0 °
Period: 118.1 minutes
Semi major axis: 7974 km
RCS: 0.0463 m2 (small)
Launch date: February 12, 1991
Source: Commonwealth of Independent States (former USSR) (CIS)
Launch site: PLESETSK MISSILE AND SPACE COMPLEX (PKMTR)

Note: This is SATELLITE DEBRIS
Your satellite tracking list
Your tracking list is empty




NASA's NSSDC Master Catalog

Two Line Element Set (TLE):
1 21943U 91009CE  23267.15502831  .00000025  00000-0  36929-3 0  9992
2 21943  73.9532 304.3380 0136763  38.2889  21.3446 12.19228460448703
Source of the keplerian elements: AFSPC